When you browse on this site, cookies collect data to enhance your experience and personalize the content and advertising you see.
Visit our Privacy Policy to learn more. By continuing to use the site, you agree to this use of cookies and data.
  • In United Kingdom
  • List of Countries
  • For 7 days
  • Water Temperature
  • Satellite Maps
  • Weather Map
  • Weather Widgets
  • user-avatar
    Login

    Hourly Weather Salvador

    Today, 21 January, Monday

    Time Temperature Precipitation Wind Pressure Humidity
    00:00 +26°C° 0 mm 4 mps 757 mmHg 83%
    01:00 +26°C° 0 mm 3 mps 757 mmHg 84%
    02:00 +26°C° 0 mm 3 mps 757 mmHg 85%
    03:00 +26°C° 0 mm 3 mps 757 mmHg 86%
    04:00 +26°C° 0.1 mm 3 mps 757 mmHg 85%
    05:00 +26°C° 0.1 mm 2 mps 757 mmHg 85%
    06:00 +26°C° 0.1 mm 2 mps 757 mmHg 84%
    07:00 +28°C° 0.1 mm 3 mps 758 mmHg 77%
    08:00 +29°C° 0.1 mm 3 mps 758 mmHg 69%
    09:00 +31°C° 0 mm 3 mps 758 mmHg 60%
    10:00 +33°C° 0 mm 4 mps 758 mmHg 58%
    11:00 +33°C° 0 mm 4 mps 758 mmHg 56%
    12:00 +34°C° 0 mm 4 mps 757 mmHg 54%
    13:00 +34°C° 0 mm 4 mps 757 mmHg 54%
    14:00 +34°C° 0 mm 5 mps 757 mmHg 54%
    15:00 +34°C° 0 mm 5 mps 756 mmHg 54%
    16:00 +33°C° 0 mm 4 mps 756 mmHg 59%
    17:00 +30°C° 0 mm 4 mps 756 mmHg 64%
    18:00 +29°C° 0 mm 4 mps 756 mmHg 69%
    19:00 +29°C° 0 mm 4 mps 757 mmHg 72%
    20:00 +28°C° 0 mm 4 mps 757 mmHg 75%
    21:00 +27°C° 0 mm 4 mps 758 mmHg 78%
    22:00 +27°C° 0.1 mm 4 mps 758 mmHg 79%
    23:00 +27°C° 0.1 mm 4 mps 758 mmHg 80%

    Tomorrow, 22 January, Tuesday

    Time Temperature Precipitation Wind Pressure Humidity
    00:00 +27°C° 0.1 mm 4 mps 758 mmHg 81%
    01:00 +27°C° 0.1 mm 4 mps 758 mmHg 82%
    02:00 +26°C° 0.1 mm 3 mps 757 mmHg 82%
    03:00 +26°C° 0.1 mm 3 mps 757 mmHg 83%
    04:00 +26°C° 0 mm 3 mps 757 mmHg 82%
    05:00 +26°C° 0 mm 3 mps 757 mmHg 81%
    06:00 +26°C° 0 mm 3 mps 757 mmHg 81%
    07:00 +28°C° 0 mm 3 mps 758 mmHg 73%
    08:00 +30°C° 0 mm 3 mps 758 mmHg 64%
    09:00 +31°C° 0 mm 3 mps 758 mmHg 56%
    10:00 +33°C° 0 mm 4 mps 758 mmHg 54%
    11:00 +34°C° 0 mm 4 mps 758 mmHg 52%
    12:00 +34°C° 0 mm 4 mps 757 mmHg 50%
    13:00 +34°C° 0 mm 4 mps 757 mmHg 51%
    14:00 +34°C° 0 mm 4 mps 756 mmHg 52%
    15:00 +34°C° 0 mm 4 mps 755 mmHg 53%
    16:00 +32°C° 0 mm 4 mps 755 mmHg 59%
    17:00 +30°C° 0 mm 4 mps 755 mmHg 65%
    18:00 +29°C° 0 mm 4 mps 755 mmHg 71%
    19:00 +29°C° 0 mm 4 mps 756 mmHg 73%
    20:00 +28°C° 0 mm 4 mps 756 mmHg 76%
    21:00 +28°C° 0 mm 4 mps 757 mmHg 79%
    22:00 +28°C° 0.3 mm 4 mps 757 mmHg 82%
    23:00 +27°C° 0.3 mm 4 mps 757 mmHg 85%

    Day after tomorrow, 23 January, Wednesday

    Time Temperature Precipitation Wind Pressure Humidity
    00:00 +27°C° 0.3 mm 4 mps 757 mmHg 88%
    01:00 +27°C° 0.1 mm 3 mps 757 mmHg 88%
    02:00 +26°C° 0.1 mm 3 mps 756 mmHg 89%
    03:00 +26°C° 0.1 mm 2 mps 756 mmHg 90%
    04:00 +26°C° 0.2 mm 2 mps 756 mmHg 89%
    05:00 +26°C° 0.2 mm 2 mps 756 mmHg 89%
    06:00 +26°C° 0.2 mm 2 mps 756 mmHg 89%
    07:00 +28°C° 0.2 mm 2 mps 757 mmHg 81%
    08:00 +29°C° 0.2 mm 2 mps 757 mmHg 74%
    09:00 +31°C° 0.2 mm 3 mps 757 mmHg 67%
    10:00 +31°C° 0.1 mm 3 mps 757 mmHg 64%
    11:00 +33°C° 0.1 mm 3 mps 757 mmHg 60%
    12:00 +34°C° 0.1 mm 4 mps 757 mmHg 57%
    13:00 +34°C° 0.1 mm 4 mps 756 mmHg 59%
    14:00 +33°C° 0.1 mm 4 mps 756 mmHg 62%
    15:00 +32°C° 0.1 mm 5 mps 755 mmHg 65%
    16:00 +32°C° 0 mm 5 mps 755 mmHg 67%
    17:00 +30°C° 0 mm 4 mps 755 mmHg 69%
    18:00 +29°C° 0 mm 4 mps 755 mmHg 72%
    19:00 +29°C° 0 mm 4 mps 756 mmHg 74%
    20:00 +28°C° 0 mm 4 mps 756 mmHg 77%
    21:00 +28°C° 0 mm 4 mps 757 mmHg 79%
    22:00 +27°C° 0.3 mm 4 mps 757 mmHg 81%
    23:00 +27°C° 0.3 mm 4 mps 756 mmHg 83%

    24 January, Thursday

    Time Temperature Precipitation Wind Pressure Humidity
    00:00 +27°C° 0.3 mm 3 mps 756 mmHg 85%
    01:00 +27°C° 0.7 mm 3 mps 756 mmHg 86%
    02:00 +26°C° 0.7 mm 3 mps 755 mmHg 88%
    03:00 +26°C° 0.7 mm 3 mps 755 mmHg 89%
    04:00 +26°C° 1.6 mm 3 mps 755 mmHg 89%
    05:00 +26°C° 1.6 mm 2 mps 756 mmHg 89%
    06:00 +26°C° 1.6 mm 2 mps 756 mmHg 89%
    07:00 +27°C° 1.3 mm 2 mps 756 mmHg 86%
    08:00 +27°C° 1.3 mm 2 mps 757 mmHg 83%
    09:00 +28°C° 1.3 mm 2 mps 757 mmHg 80%
    10:00 +30°C° 0.1 mm 2 mps 757 mmHg 71%
    11:00 +31°C° 0.1 mm 3 mps 756 mmHg 63%
    12:00 +34°C° 0.1 mm 3 mps 756 mmHg 54%
    13:00 +34°C° 0 mm 4 mps 755 mmHg 55%
    14:00 +34°C° 0 mm 4 mps 755 mmHg 56%
    15:00 +33°C° 0 mm 5 mps 754 mmHg 57%
    16:00 +32°C° 0 mm 4 mps 754 mmHg 63%
    17:00 +30°C° 0 mm 4 mps 754 mmHg 68%
    18:00 +29°C° 0 mm 4 mps 755 mmHg 74%
    19:00 +28°C° 0.1 mm 4 mps 755 mmHg 77%
    20:00 +28°C° 0.1 mm 4 mps 756 mmHg 80%
    21:00 +27°C° 0.1 mm 4 mps 756 mmHg 83%
    22:00 +27°C° 0.1 mm 4 mps 756 mmHg 84%
    23:00 +27°C° 0.1 mm 3 mps 756 mmHg 86%

    25 January, Friday

    Time Temperature Precipitation Wind Pressure Humidity
    00:00 +27°C° 0.1 mm 3 mps 756 mmHg 88%
    01:00 +26°C° 0.3 mm 2 mps 756 mmHg 89%
    02:00 +26°C° 0.3 mm 2 mps 755 mmHg 90%
    03:00 +25°C° 0.3 mm 1 mps 755 mmHg 92%
    04:00 +26°C° 1.3 mm 1 mps 755 mmHg 91%
    05:00 +26°C° 1.3 mm 1 mps 755 mmHg 91%
    06:00 +26°C° 1.3 mm 1 mps 756 mmHg 90%
    07:00 +27°C° 0.5 mm 2 mps 756 mmHg 83%
    08:00 +28°C° 0.5 mm 2 mps 756 mmHg 76%
    09:00 +30°C° 0.5 mm 3 mps 757 mmHg 69%
    10:00 +31°C° 0.2 mm 3 mps 756 mmHg 67%
    11:00 +32°C° 0.2 mm 4 mps 756 mmHg 65%
    12:00 +33°C° 0.2 mm 4 mps 755 mmHg 63%
    13:00 +33°C° 0 mm 4 mps 755 mmHg 61%
    14:00 +33°C° 0 mm 4 mps 754 mmHg 59%
    15:00 +33°C° 0 mm 5 mps 754 mmHg 57%
    16:00 +32°C° 0 mm 4 mps 754 mmHg 62%
    17:00 +30°C° 0 mm 4 mps 754 mmHg 67%
    18:00 +29°C° 0 mm 4 mps 755 mmHg 72%
    19:00 +28°C° 0.1 mm 4 mps 755 mmHg 76%
    20:00 +28°C° 0.1 mm 4 mps 756 mmHg 79%
    21:00 +27°C° 0.1 mm 4 mps 756 mmHg 83%
    22:00 +27°C° 0.1 mm 3 mps 756 mmHg 85%
    23:00 +27°C° 0.1 mm 3 mps 756 mmHg 86%

    26 January, Saturday

    Time Temperature Precipitation Wind Pressure Humidity
    00:00 +27°C° 0.1 mm 3 mps 756 mmHg 87%
    01:00 +26°C° 0.2 mm 3 mps 756 mmHg 88%
    02:00 +26°C° 0.2 mm 3 mps 756 mmHg 89%
    03:00 +26°C° 0.2 mm 3 mps 755 mmHg 90%
    04:00 +26°C° 0.3 mm 3 mps 756 mmHg 90%
    05:00 +26°C° 0.3 mm 3 mps 756 mmHg 90%
    06:00 +26°C° 0.3 mm 3 mps 756 mmHg 90%
    07:00 +27°C° 0.7 mm 3 mps 757 mmHg 86%
    08:00 +28°C° 0.7 mm 3 mps 757 mmHg 82%
    09:00 +29°C° 0.7 mm 4 mps 757 mmHg 78%
    10:00 +30°C° 1.1 mm 4 mps 757 mmHg 74%
    11:00 +32°C° 1.1 mm 4 mps 757 mmHg 70%
    12:00 +32°C° 1.1 mm 5 mps 756 mmHg 66%
    13:00 +33°C° 0.1 mm 5 mps 756 mmHg 64%
    14:00 +33°C° 0.1 mm 5 mps 755 mmHg 63%
    15:00 +33°C° 0.1 mm 5 mps 755 mmHg 62%
    16:00 +32°C° 0 mm 5 mps 755 mmHg 67%
    17:00 +30°C° 0 mm 5 mps 755 mmHg 72%
    18:00 +29°C° 0 mm 5 mps 756 mmHg 77%
    19:00 +28°C° 0.2 mm 5 mps 756 mmHg 81%
    20:00 +28°C° 0.2 mm 5 mps 757 mmHg 84%
    21:00 +27°C° 0.2 mm 5 mps 757 mmHg 88%
    22:00 +27°C° 0.6 mm 5 mps 757 mmHg 89%
    23:00 +27°C° 0.6 mm 5 mps 757 mmHg 90%
    Show more